San Angelo, TX

6:38 PM CDT on April 29, 2017 (GMT -0500)
San Angelo Regional-Mathis

Weather History for KSJT - September, 2014

Change the Weather History Date:

Friday, September 26, 2014

  Actual Average Record
Temperature  
Mean Temperature 71 °F 72 °F  
Max Temperature 81 °F 85 °F 106 °F (1977)
Min Temperature 60 °F 60 °F 38 °F (2000)
Degree Days  
Heating Degree Days 0 1  
Month to date heating degree days 5 4  
Since 1 July heating degree days 5 4  
Cooling Degree Days 6 8  
Month to date cooling degree days 357 300  
Year to date cooling degree days 2615 2336  
Growing Degree Days 21 (Base 50)    
Moisture  
Dew Point 60 °F    
Average Humidity 76    
Maximum Humidity 97    
Minimum Humidity 54    
Precipitation  
Precipitation T in 0.07 in 1.11 in (1936)
Month to date precipitation 0.89 2.16  
Year to date precipitation 12.87 16.23  
Sea Level Pressure  
Sea Level Pressure 30.07 in    
Wind  
Wind Speed 5 mph (SE)    
Max Wind Speed 13 mph    
Max Gust Speed 17 mph    
Visibility 10 miles    
Events Rain    
T = Trace of Precipitation, MM = Missing Value Source: NWS Daily Summary

Daily Weather History Graph

Daily Weather History Graph

Search for Another Location

Airport or City:

Trip Planner

Search our weather history database for the weather conditions in past years. The results will help you decide how hot, cold, wet, or windy it might be!

Date:

Astronomy

Sep. 26, 2014 Rise Set
Actual Time 7:32 AM CDT 7:33 PM CDT
Civil Twilight 7:08 AM CDT 7:57 PM CDT
Nautical Twilight 6:40 AM CDT 8:25 PM CDT
Astronomical Twilight 6:11 AM CDT 8:54 PM CDT
Moon 9:40 AM CDT (9/26) 9:05 PM CDT (9/26)
Length of Visible Light 12h 49m
Length of Day
12h 00m
Waxing Crescent, 6% of the Moon is Illuminated
Sep 26
Waxing Crescent
Oct 1
First Quarter
Oct 8
Full
Oct 15
Last Quarter
Oct 23
New

Hourly Weather History & Observations

Time (CDT) Temp. Dew Point Humidity Pressure Visibility Wind Dir Wind Speed Gust Speed Precip Events Conditions
12:51 AM 66.0 °F 57.0 °F 73% 30.07 in 10.0 mi South 4.6 mph - N/A   Clear
1:51 AM 64.9 °F 57.9 °F 78% 30.06 in 10.0 mi SE 4.6 mph - N/A   Clear
2:51 AM 64.9 °F 57.9 °F 78% 30.06 in 10.0 mi SE 4.6 mph - N/A   Clear
3:51 AM 63.0 °F 57.9 °F 84% 30.06 in 10.0 mi Calm Calm - N/A   Clear
4:51 AM 62.1 °F 59.0 °F 90% 30.07 in 10.0 mi ENE 3.5 mph - N/A   Clear
5:51 AM 63.0 °F 60.1 °F 90% 30.07 in 10.0 mi East 4.6 mph - N/A   Clear
6:51 AM 62.1 °F 59.0 °F 90% 30.08 in 10.0 mi Calm Calm - N/A   Clear
7:51 AM 61.0 °F 59.0 °F 93% 30.10 in 10.0 mi ENE 3.5 mph - N/A   Clear
8:29 AM 63.0 °F 60.1 °F 90% 30.15 in 10.0 mi Calm Calm - N/A   Mostly Cloudy
8:51 AM 64.9 °F 61.0 °F 87% 30.12 in 10.0 mi Calm Calm - N/A   Overcast
9:51 AM 72.0 °F 61.0 °F 68% 30.11 in 10.0 mi Variable 3.5 mph - N/A   Scattered Clouds
10:51 AM 73.9 °F 60.1 °F 62% 30.12 in 10.0 mi Variable 4.6 mph - N/A   Scattered Clouds
11:51 AM 75.9 °F 61.0 °F 60% 30.12 in 10.0 mi East 10.4 mph - N/A   Mostly Cloudy
12:51 PM 79.0 °F 62.1 °F 56% 30.09 in 10.0 mi ENE 9.2 mph - N/A   Clear
1:51 PM 79.0 °F 61.0 °F 54% 30.07 in 10.0 mi East 11.5 mph - N/A   Mostly Cloudy
2:51 PM 78.1 °F 60.1 °F 54% 30.04 in 10.0 mi ESE 10.4 mph - N/A   Overcast
3:51 PM 79.0 °F 60.1 °F 52% 30.03 in 10.0 mi SE 9.2 mph - N/A   Mostly Cloudy
4:51 PM 79.0 °F 60.1 °F 52% 30.02 in 10.0 mi ESE 8.1 mph - N/A   Overcast
5:51 PM 78.1 °F 60.1 °F 54% 30.02 in 10.0 mi SSE 8.1 mph - N/A   Overcast
6:51 PM 75.9 °F 60.1 °F 58% 30.02 in 10.0 mi South 5.8 mph - N/A   Mostly Cloudy
7:51 PM 75.0 °F 60.1 °F 60% 30.03 in 10.0 mi Calm Calm - N/A   Overcast
8:51 PM 72.0 °F 64.0 °F 76% 30.04 in 10.0 mi SSW 5.8 mph - 0.00 in Rain Light Rain
9:51 PM 70.0 °F 64.9 °F 84% 30.05 in 10.0 mi SSW 3.5 mph - 0.00 in   Mostly Cloudy
10:51 PM 70.0 °F 64.9 °F 84% 30.04 in 10.0 mi West 3.5 mph - N/A   Partly Cloudy
11:51 PM 69.1 °F 64.9 °F 87% 30.05 in 10.0 mi SSW 3.5 mph - N/A   Overcast